Weather History for KARA - April, 2014

Change the Weather History Date:

Friday, April 18, 2014

  Actual Average Record
Temperature  
Mean Temperature 70 °F 68 °F  
Max Temperature 79 °F 80 °F 92 °F (1948)
Min Temperature 61 °F 57 °F 43 °F (1999)
Degree Days  
Heating Degree Days 0 1  
Month to date heating degree days 43 38  
Since 1 July heating degree days 1780 1402  
Cooling Degree Days 5 5  
Month to date cooling degree days 54 66  
Year to date cooling degree days 95 149  
Growing Degree Days 20 (Base 50)    
Moisture  
Dew Point 59 °F    
Average Humidity 73    
Maximum Humidity 97    
Minimum Humidity 48    
Precipitation  
Precipitation 0.00 in 0.16 in 2.15 in (1973)
Month to date precipitation 2.24 2.67  
Year to date precipitation 12.09 15.85  
Sea Level Pressure  
Sea Level Pressure 30.11 in    
Wind  
Wind Speed 8 mph (North)    
Max Wind Speed 18 mph    
Max Gust Speed 23 mph    
Visibility 8 miles    
Events      
T = Trace of Precipitation, MM = Missing Value Source: NWS Daily Summary

Daily Weather History Graph

Daily Weather History Graph

Search for Another Location

Airport or City:

Trip Planner

Search our weather history database for the weather conditions in past years. The results will help you decide how hot, cold, wet, or windy it might be!

Date:

Astronomy

Apr. 18, 2014 Rise Set
Actual Time 6:37 AM CDT 7:36 PM CDT
Civil Twilight 6:12 AM CDT 8:01 PM CDT
Nautical Twilight 5:43 AM CDT 8:30 PM CDT
Astronomical Twilight 5:13 AM CDT 9:00 PM CDT
Moon 11:12 PM CDT (4/18) 9:09 AM CDT (4/18)
Length of Visible Light 13h 48m
Length of Day
12h 59m
Waning Gibbous, 87% of the Moon is Illuminated
Apr 18
Waning Gibbous
Apr 22
Last Quarter
Apr 29
New
May 6
First Quarter
May 14
Full

Hourly Weather History & Observations

Time (CDT) Temp. Dew Point Humidity Pressure Visibility Wind Dir Wind Speed Gust Speed Precip Events Conditions
12:53 AM 63.0 °F 59.0 °F 87% 30.13 in 7.0 mi NNE 5.8 mph - N/A   Overcast
1:06 AM 63.0 °F 59.0 °F 87% 30.13 in 8.0 mi NNE 4.6 mph - N/A   Overcast
1:53 AM 63.0 °F 59.0 °F 87% 30.12 in 6.0 mi North 5.8 mph - N/A   Overcast
2:53 AM 61.0 °F 59.0 °F 93% 30.11 in 3.0 mi North 4.6 mph - N/A   Overcast
3:12 AM 61.0 °F 59.0 °F 93% 30.10 in 4.0 mi North 5.8 mph - N/A   Overcast
3:53 AM 61.0 °F 59.0 °F 93% 30.09 in 4.0 mi North 6.9 mph - N/A   Overcast
4:53 AM 61.0 °F 59.0 °F 93% 30.09 in 6.0 mi North 5.8 mph - N/A   Overcast
5:53 AM 62.1 °F 57.9 °F 86% 30.10 in 7.0 mi NNE 6.9 mph - N/A   Overcast
6:20 AM 61.0 °F 57.9 °F 90% 30.12 in 7.0 mi North 4.6 mph - N/A   Overcast
6:53 AM 61.0 °F 57.9 °F 90% 30.12 in 6.0 mi North 4.6 mph - N/A   Overcast
7:53 AM 63.0 °F 57.9 °F 84% 30.14 in 5.0 mi North 6.9 mph - N/A   Overcast
8:53 AM 66.0 °F 57.9 °F 75% 30.13 in 8.0 mi NE 10.4 mph - N/A   Clear
9:53 AM 69.1 °F 59.0 °F 70% 30.13 in 9.0 mi NE 6.9 mph - N/A   Clear
10:26 AM 69.1 °F 59.0 °F 70% 30.14 in 10.0 mi NNW 10.4 mph - N/A   Overcast
10:53 AM 68.0 °F 59.0 °F 73% 30.14 in 10.0 mi NNW 10.4 mph - N/A   Overcast
11:19 AM 71.1 °F 60.1 °F 68% 30.14 in 10.0 mi North 10.4 mph - N/A   Overcast
11:53 AM 71.1 °F 59.0 °F 66% 30.13 in 10.0 mi North 10.4 mph - N/A   Mostly Cloudy
12:53 PM 75.0 °F 60.1 °F 60% 30.10 in 10.0 mi NNE 11.5 mph - N/A   Partly Cloudy
1:53 PM 77.0 °F 59.0 °F 54% 30.09 in 10.0 mi NNE 9.2 mph 19.6 mph N/A   Partly Cloudy
2:53 PM 78.1 °F 57.9 °F 50% 30.08 in 10.0 mi NNE 10.4 mph 23.0 mph N/A   Mostly Cloudy
4:53 PM 72.0 °F 60.1 °F 66% 30.07 in 10.0 mi North 12.7 mph - N/A   Scattered Clouds
5:53 PM 73.9 °F 60.1 °F 62% 30.07 in 10.0 mi North 12.7 mph - N/A   Scattered Clouds
7:53 PM 69.1 °F 59.0 °F 70% 30.08 in 10.0 mi North 4.6 mph - N/A   Clear
8:53 PM 68.0 °F 59.0 °F 73% 30.12 in 10.0 mi NNE 8.1 mph - N/A   Scattered Clouds
10:53 PM 63.0 °F 57.9 °F 84% 30.14 in 10.0 mi NNE 4.6 mph - N/A   Partly Cloudy
11:53 PM 63.0 °F 57.9 °F 84% 30.14 in 10.0 mi NE 4.6 mph - N/A   Clear